Voltar ao catálogo

STARLINK-30956

AtivoComunicaçõesVLEO
NORAD 58481·PAYLOAD·🇺🇸 United States

Lançado Dec 3, 2023 de Cape Canaveral Space Force Station

Loading…

Próximas Passagens (próximas 24 horas)

TLE

AtualizadoSource: CelesTrak SupGP

Época: Sep 15, 2026, 02:36 UTC

1 58481C 23186J   26258.10881944 -.00031632  00000+0 -11454-2 0  2585
2 58481  43.0011  51.5372 0001534 266.9617  10.9481 15.27604062    17

Acompanhe STARLINK-30956 em tempo real com AllMySat

Download on the App Store